Погода в Верхней Куэнге

Россия / Забайкальский край     52°07′53″N   117°03′32″E
темп.,
°C
ветер,
м/с
пор.,
м/с
влажн.,
%
обл.,
%
осадки,
мм/ч
давл.,
гПа
погр.,
м
11 апреля, вс
вс1100:00−3св355091 0.0 1024216
03:00−3ссв3546100 0.0 1025235
06:00−4с3541100 0.0 1027352
09:00−3с4427100 0.0 1028710
12:00−1с3422100 0.0 10271568
15:00+1ссз342177 0.0 10252236
18:00+1с4521100 0.0 10242447
21:00−1ссв473397 0.0 1026398
12 апреля, пн
пн1200:00−4св594699 0.0 1027448
03:00−5ссв4648100 0.0 1029964
06:00−8с493148 0.0 1030782
09:00−6с68280 0.0 10301388
12:00−3ссз6824100 0.0 10282643
15:00−1с6820100 0.0 10252890
18:00−1с4722100 0.0 10232516
21:00−4св22345 0.0 102513
13 апреля, вт
вт1300:00−5вюв11370 0.0 102410
03:00−6сз11395 0.0 102410
06:00−7зсз11425 0.0 102310
09:00−3ссз25305 0.0 1022598
12:000сз45225 0.0 10192180
15:00+2зсз45193 0.0 10162257
18:00+3зсз36180 0.0 10132181
21:00−1ююз22285 0.0 101315
14 апреля, ср
ср1400:00−3ююв2233100 0.0 101118
03:00−2ююв1134100 0.0 100914
06:00−3зюз22425 0.0 100811
09:00+1сз57382 0.0 1008717
12:00+5ссз452991 0.0 10071701
15:00+7ссз5622100 0.0 10053072
18:00+6с4423100 0.0 10052224
21:00+3ссз2437100 0.0 1007154
15 апреля, чт
чт1500:000ссв3641100 0.0 1007130
03:00−2ссв3362100 0.0 100659
06:00−4ссв337097 0.0 100758
09:000ссв454480 0.0 1006577
12:00+4ссв5633100 0.2 10042278
15:00+4ссв4534100 0.6 10032061
18:00+3с5640100 0.1 10031517
21:000с4662100 0.4 1006375